Total_Precipitation_Accumulation
2.03 1.97 1.91 1.78 1.67 1.66 1.74 1.95 2.29 2.24 1.82 1.47 1.42 1.37 1.34 1.32 1.46 1.39 1.27 1.55 1.57 1.52 1.54 1.57 1.55 1.54 1.65 1.80 1.97 2.22 2.44 2.52 2.48 2.50 2.56 2.58 2.68 2.86
1.94 1.90 1.84 1.76 1.73 1.72 1.77 1.84 2.01 2.18 1.99 1.51 1.33 1.30 1.35 1.34 1.47 1.32 1.29 1.55 1.50 1.46 1.42 1.38 1.38 1.43 1.52 1.67 1.75 1.89 2.14 2.30 2.28 2.29 2.38 2.48 2.58 2.70
1.90 1.84 1.78 1.72 1.74 1.70 1.73 1.81 1.86 1.94 1.93 1.50 1.28 1.26 1.36 1.37 1.40 1.32 1.28 1.26 1.20 1.32 1.29 1.26 1.25 1.29 1.41 1.54 1.66 1.73 1.87 2.00 2.12 2.18 2.29 2.42 2.48 2.50
1.92 1.89 1.81 1.79 1.88 1.88 1.87 1.85 1.83 1.79 1.81 1.64 1.37 1.27 1.26 1.21 1.19 1.21 1.22 1.21 1.12 1.29 1.27 1.22 1.25 1.29 1.36 1.41 1.48 1.59 1.69 1.76 1.86 1.95 2.02 2.13 2.26 2.37
1.99 1.96 1.90 1.88 1.94 1.93 1.89 1.85 1.78 1.73 1.71 1.67 1.50 1.35 1.33 1.27 1.25 1.23 1.20 1.20 1.12 1.22 1.26 1.24 1.26 1.31 1.33 1.40 1.43 1.44 1.48 1.54 1.61 1.73 1.82 1.87 1.96 2.09
2.01 1.97 1.91 1.88 1.85 1.80 1.76 1.70 1.69 1.72 1.75 1.76 1.64 1.50 1.43 1.40 1.41 1.44 1.40 1.28 1.21 1.11 1.19 1.17 1.20 1.23 1.26 1.28 1.31 1.31 1.32 1.40 1.50 1.59 1.74 1.80 1.83 1.96
2.06 1.99 1.86 1.81 1.74 1.71 1.69 1.62 1.63 1.75 1.83 1.86 1.76 1.61 1.49 1.48 1.51 1.43 1.44 1.39 1.32 1.19 1.16 1.11 1.06 1.03 1.05 1.14 1.23 1.33 1.39 1.50 1.64 1.73 1.84 1.96 2.03 2.09
1.94 1.81 1.73 1.71 1.66 1.70 1.72 1.69 1.75 1.89 2.00 1.95 1.78 1.56 1.34 1.27 1.35 1.50 1.62 1.68 1.59 1.25 1.18 1.22 1.14 1.13 1.05 1.03 1.24 1.36 1.47 1.59 1.73 1.79 1.86 1.93 2.03 2.14
1.82 1.69 1.60 1.50 1.49 1.37 1.50 1.61 1.65 1.75 1.80 1.73 1.64 1.40 1.27 1.23 1.47 1.72 1.72 1.63 1.40 1.17 1.25 1.38 1.26 1.22 1.14 1.20 1.39 1.34 1.45 1.59 1.73 1.81 1.87 1.90 1.96 2.07
1.61 1.59 1.53 1.48 1.41 1.39 1.43 1.50 1.41 1.36 1.36 1.29 1.28 1.29 1.28 1.30 1.51 1.78 1.80 1.77 1.53 1.32 1.32 1.49 1.33 1.27 1.19 1.22 1.39 1.31 1.34 1.46 1.62 1.77 1.89 1.90 1.92 2.00
1.34 1.39 1.45 1.39 1.49 1.60 1.55 1.50 1.33 1.18 1.21 1.29 1.36 1.36 1.44 1.45 1.54 1.90 2.08 2.13 1.90 1.51 1.30 1.31 1.21 1.20 1.26 1.29 1.35 1.42 1.37 1.44 1.57 1.67 1.75 1.85 1.94 2.00
1.25 1.29 1.44 1.41 1.52 1.62 1.50 1.46 1.37 1.19 1.13 1.13 1.13 1.14 1.12 1.19 1.40 1.61 2.06 2.39 2.06 1.68 1.24 1.30 1.31 1.41 1.72 1.43 1.33 1.35 1.38 1.49 1.59 1.61 1.62 1.71 1.83 1.83
1.21 1.19 1.23 1.48 1.56 1.57 1.46 1.32 1.34 1.31 1.16 1.07 1.06 1.03 1.03 1.07 1.15 1.25 1.56 2.20 2.40 1.83 1.17 1.62 1.85 1.57 1.79 1.55 1.38 1.43 1.51 1.62 1.69 1.69 1.69 1.70 1.76 1.84
1.13 1.06 1.15 1.41 1.40 1.38 1.32 1.34 1.47 1.38 1.17 1.16 1.14 1.10 1.05 1.03 1.03 1.10 1.23 1.45 1.74 1.77 1.38 1.83 2.38 1.97 2.07 1.80 1.52 1.53 1.60 1.78 1.99 2.04 1.95 1.98 1.90 1.90
1.11 1.23 1.28 1.26 1.21 1.21 1.29 1.34 1.30 1.27 1.35 1.41 1.28 1.10 0.99 0.97 1.01 1.10 1.17 1.25 1.36 1.40 1.42 1.57 1.99 2.09 2.31 2.27 1.83 1.61 1.77 1.93 2.19 2.42 2.30 2.07 1.86 1.82
1.21 1.26 1.22 1.14 1.09 1.12 1.22 1.23 1.19 1.25 1.42 1.49 1.36 1.15 1.04 1.07 1.14 1.24 1.39 1.43 1.57 1.50 1.42 1.45 1.64 2.04 2.26 1.98 1.99 1.89 1.87 2.26 2.45 2.61 2.47 2.18 1.92 1.74
1.32 1.16 1.06 1.03 1.03 1.01 1.04 1.06 1.12 1.23 1.35 1.31 1.34 1.31 1.24 1.24 1.27 1.35 1.58 1.72 1.79 1.58 1.45 1.41 1.45 1.60 1.83 1.94 2.01 1.87 1.92 2.13 2.35 2.54 2.39 2.26 2.11 1.93
1.36 1.20 1.09 1.01 0.97 0.94 0.96 1.01 1.05 1.14 1.26 1.36 1.40 1.40 1.40 1.39 1.39 1.43 1.63 1.82 1.81 1.60 1.47 1.40 1.48 1.67 1.73 1.74 1.86 1.96 1.98 2.14 2.24 2.21 1.98 2.06 2.13 1.90
1.31 1.22 1.09 1.04 0.99 0.94 0.95 0.99 1.01 1.03 1.18 1.37 1.47 1.49 1.52 1.49 1.51 1.57 1.67 1.77 1.72 1.56 1.39 1.30 1.48 1.95 2.08 1.64 1.39 1.63 1.99 2.10 2.01 1.97 1.82 1.83 2.04 1.90
1.16 1.15 1.10 1.06 1.05 1.06 1.06 1.09 1.09 1.09 1.19 1.32 1.40 1.47 1.57 1.65 1.65 1.64 1.68 1.72 1.68 1.49 1.31 1.18 1.29 1.77 2.31 2.08 1.72 1.57 1.67 1.90 2.04 2.11 1.89 1.72 1.80 1.79
1.06 1.05 1.03 1.06 1.11 1.15 1.17 1.19 1.24 1.29 1.33 1.47 1.49 1.50 1.58 1.72 1.70 1.59 1.58 1.56 1.51 1.42 1.33 1.13 1.09 1.34 1.72 1.95 1.83 1.50 1.52 1.67 1.86 2.23 2.21 2.09 1.89 1.69
1.05 1.05 1.04 1.05 1.12 1.19 1.24 1.27 1.33 1.35 1.39 1.50 1.55 1.58 1.63 1.73 1.72 1.58 1.48 1.48 1.39 1.32 1.25 1.11 1.03 1.18 1.51 1.88 1.71 1.36 1.34 1.38 1.45 1.56 1.83 2.21 2.66 2.70
1.09 1.08 1.07 1.10 1.16 1.24 1.30 1.32 1.37 1.38 1.43 1.55 1.61 1.59 1.60 1.59 1.49 1.46 1.43 1.43 1.44 1.37 1.32 1.30 1.22 1.25 1.35 1.45 1.51 1.38 1.26 1.24 1.24 1.34 1.57 1.62 1.69 1.90